Weather History for Wolf Creek Pass, CO

Change the Weather History Date:

Monday, July 8, 2013

  Actual Average (KALS) Record (KALS)
Temperature  
Mean Temperature 52 °F 64 °F  
Max Temperature 62 °F 83 °F 91 °F (1989)
Min Temperature 42 °F 46 °F 35 °F (1945)
Degree Days  
Heating Degree Days 13 2  
Month to date heating degree days 16  
Since 1 June heating degree days 184  
Since 1 July heating degree days 16  
Cooling Degree Days 0 1  
Month to date cooling degree days 8  
Year to date cooling degree days 14  
Since 1 June cooling degree days 14  
Growing Degree Days 2 (Base 50)    
Moisture  
Dew Point 40 °F    
Average Humidity 66    
Maximum Humidity 100    
Minimum Humidity 42    
Precipitation  
Precipitation 0.34 in 0.03 in 1.15 in (1970)
Month to date precipitation 0.21  
Year to date precipitation 2.92  
Snow  
Snow 0.00 in 0.00 in 0.00 in (2002)
Month to date snowfall 0.0  
Since 1 June snowfall 0.0  
Since 1 July snowfall 0.0  
Snow Depth -    
Sea Level Pressure  
Sea Level Pressure 30.69 in    
Wind  
Wind Speed - (North)    
Max Wind Speed -    
Max Gust Speed -    
Visibility 10 miles    
Events Rain , Thunderstorm    
T = Trace of Precipitation, MM = Missing Value Source: NWS Daily Summary

Daily Weather History Graph

Daily Weather History Graph

Search for Another Location

Airport:

Trip Planner

Search our weather history database for the weather conditions in past years. The results will help you decide how hot, cold, wet, or windy it might be!

Date:

Astronomy

Jul. 08, 2013 Rise Set
Actual Time 5:53 AM MDT 8:30 PM MDT
Civil Twilight 5:23 AM MDT 9:01 PM MDT
Nautical Twilight 4:44 AM MDT 9:39 PM MDT
Astronomical Twilight 4:02 AM MDT 10:21 PM MDT
Moon 6:23 AM MDT (7/8) 8:37 PM MDT (7/8)
Length of Visible Light 15h 38m
Length of Day
14h 36m
New Moon, 0% of the Moon is Illuminated
Jul 8
New Moon
Jul 15
First Quarter
Jul 22
Full
Jul 29
Last Quarter
Aug 6
New

Hourly Weather History & Observations

Time (MDT) Temp. Dew Point Humidity Pressure Visibility Wind Dir Wind Speed Gust Speed Precip Events Conditions
12:17 AM 51.8 °F 37.4 °F 58% 30.64 in 10.0 mi North - - N/A   Scattered Clouds
12:37 AM 50.0 °F 37.4 °F 62% 30.64 in 10.0 mi North - - N/A   Mostly Cloudy
12:57 AM 50.0 °F 41.0 °F 71% 30.65 in 10.0 mi North - - N/A Rain Light Rain
1:17 AM 50.0 °F 41.0 °F 71% 30.65 in 10.0 mi North - - N/A   Overcast
1:37 AM 48.2 °F 41.0 °F 76% 30.64 in 10.0 mi North - - N/A Rain Light Rain
1:57 AM 48.2 °F 41.0 °F 76% 30.66 in 10.0 mi North - - N/A Thunderstorm Drizzle
2:17 AM 46.4 °F 42.8 °F 87% 30.67 in 7.0 mi North - - 0.02 in Rain , Thunderstorm Thunderstorms and Rain
2:37 AM 44.6 °F 42.8 °F 93% 30.66 in 4.0 mi North - - 0.08 in Rain , Thunderstorm Thunderstorms and Rain
2:57 AM 44.6 °F 42.8 °F 93% 30.65 in 10.0 mi North - - 0.09 in   Mostly Cloudy
3:17 AM 44.6 °F 42.8 °F 93% 30.64 in 10.0 mi North - - N/A   Scattered Clouds
3:37 AM 42.8 °F 42.8 °F 100% 30.64 in 10.0 mi North - - N/A   Scattered Clouds
3:57 AM 42.8 °F 42.8 °F 100% 30.64 in 10.0 mi North - - N/A   Clear
4:17 AM 42.8 °F 41.0 °F 93% 30.65 in 10.0 mi North - - N/A   Clear
4:37 AM 42.8 °F 41.0 °F 93% 30.66 in 10.0 mi North - - N/A   Clear
4:57 AM 42.8 °F 41.0 °F 93% 30.64 in 10.0 mi North - - N/A   Clear
5:17 AM 44.6 °F 41.0 °F 87% 30.66 in 10.0 mi North - - N/A   Clear
5:37 AM 44.6 °F 41.0 °F 87% 30.66 in 10.0 mi North - - N/A   Clear
5:57 AM 44.6 °F 41.0 °F 87% 30.67 in 10.0 mi North - - N/A   Clear
6:17 AM 46.4 °F 37.4 °F 71% 30.67 in 10.0 mi North - - N/A   Clear
6:37 AM 46.4 °F 37.4 °F 71% 30.67 in 10.0 mi North - - N/A   Clear
6:57 AM 46.4 °F 37.4 °F 71% 30.67 in 10.0 mi North - - N/A   Clear
7:17 AM 50.0 °F 37.4 °F 62% 30.68 in 10.0 mi North - - N/A   Clear
7:37 AM 50.0 °F 37.4 °F 62% 30.68 in 10.0 mi North - - N/A   Clear
7:57 AM 51.8 °F 37.4 °F 58% 30.69 in 10.0 mi North - - N/A   Clear
8:17 AM 53.6 °F 39.2 °F 58% 30.69 in 10.0 mi North - - N/A   Clear
8:37 AM 53.6 °F 39.2 °F 58% 30.69 in 10.0 mi North - - N/A   Clear
8:57 AM 53.6 °F 39.2 °F 58% 30.70 in 10.0 mi North - - N/A   Clear
9:17 AM 53.6 °F 41.0 °F 62% 30.71 in 10.0 mi North - - N/A   Clear
9:37 AM 55.4 °F 41.0 °F 58% 30.71 in 10.0 mi North - - N/A   Clear
9:57 AM 55.4 °F 42.8 °F 63% 30.71 in 10.0 mi North - - N/A   Clear
10:17 AM 55.4 °F 42.8 °F 63% 30.71 in 10.0 mi North - - N/A   Clear
10:37 AM 57.2 °F 42.8 °F 59% 30.71 in 10.0 mi North - - N/A   Clear
10:57 AM 59.0 °F 42.8 °F 55% 30.72 in 10.0 mi North - - N/A   Clear
11:17 AM 59.0 °F 41.0 °F 51% 30.72 in 10.0 mi North - - N/A   Scattered Clouds
11:37 AM 60.8 °F 42.8 °F 52% 30.72 in 10.0 mi North - - N/A   Scattered Clouds
11:57 AM 60.8 °F 41.0 °F 48% 30.72 in 10.0 mi North - - N/A   Clear
12:17 PM 60.8 °F 42.8 °F 52% 30.72 in 10.0 mi North - - N/A   Clear
12:37 PM 60.8 °F 42.8 °F 52% 30.71 in 10.0 mi North - - N/A   Clear
12:57 PM 60.8 °F 42.8 °F 52% 30.70 in 10.0 mi North - - N/A   Clear
1:17 PM 60.8 °F 42.8 °F 52% 30.70 in 10.0 mi North - - N/A   Clear
1:37 PM 62.6 °F 42.8 °F 48% 30.69 in 10.0 mi North - - N/A   Clear
1:57 PM 62.6 °F 41.0 °F 45% 30.69 in 10.0 mi North - - N/A   Clear
2:17 PM 60.8 °F 41.0 °F 48% 30.69 in 10.0 mi North - - N/A   Scattered Clouds
2:37 PM 60.8 °F 37.4 °F 42% 30.69 in 10.0 mi North - - N/A   Mostly Cloudy
2:57 PM 59.0 °F 37.4 °F 45% 30.70 in 10.0 mi North - - N/A Thunderstorm Thunderstorm
3:17 PM 53.6 °F 41.0 °F 62% 30.69 in 10.0 mi North - - N/A   Overcast
3:37 PM 50.0 °F 37.4 °F 62% 30.71 in 10.0 mi North - - N/A Rain , Thunderstorm Light Thunderstorms and Rain
3:57 PM 50.0 °F 37.4 °F 62% 30.70 in 10.0 mi North - - 0.02 in Rain Light Rain
4:17 PM 51.8 °F 37.4 °F 58% 30.69 in 10.0 mi North - - N/A   Overcast
4:37 PM 53.6 °F 37.4 °F 54% 30.69 in 10.0 mi North - - N/A   Mostly Cloudy
4:57 PM 53.6 °F 35.6 °F 51% 30.68 in 10.0 mi North - - N/A Rain Light Rain
5:17 PM 53.6 °F 37.4 °F 54% 30.68 in 7.0 mi North - - 0.02 in Rain Rain
5:37 PM 53.6 °F 41.0 °F 62% 30.68 in 10.0 mi North - - 0.02 in Rain Light Rain
5:57 PM 53.6 °F 41.0 °F 62% 30.68 in 10.0 mi North - - 0.02 in Rain Light Rain
6:17 PM 53.6 °F 37.4 °F 54% 30.69 in 10.0 mi North - - N/A   Overcast
6:37 PM 51.8 °F 41.0 °F 67% 30.69 in 7.0 mi North - - 0.01 in Rain Rain
6:57 PM 50.0 °F 39.2 °F 66% 30.69 in 7.0 mi North - - 0.03 in Rain , Thunderstorm Light Thunderstorms and Rain
7:17 PM 50.0 °F 41.0 °F 71% 30.69 in 10.0 mi North - - N/A   Mostly Cloudy
7:37 PM 50.0 °F 39.2 °F 66% 30.69 in 10.0 mi North - - N/A   Overcast
7:57 PM 50.0 °F 39.2 °F 66% 30.69 in 10.0 mi North - - N/A   Overcast
8:17 PM 50.0 °F 37.4 °F 62% 30.70 in 10.0 mi North - - N/A   Overcast
8:37 PM 50.0 °F 35.6 °F 58% 30.71 in 10.0 mi North - - N/A   Mostly Cloudy
8:57 PM 50.0 °F 35.6 °F 58% 30.72 in 10.0 mi North - - N/A   Overcast
9:17 PM 50.0 °F 37.4 °F 62% 30.74 in 10.0 mi North - - N/A Rain Rain
9:37 PM 44.6 °F 39.2 °F 81% 30.77 in 2.0 mi North - - 0.17 in Rain Light Rain
9:57 PM 44.6 °F 41.0 °F 87% 30.76 in 7.0 mi North - - 0.18 in Rain Rain
10:17 PM 44.6 °F 39.2 °F 81% 30.76 in 10.0 mi North - - N/A   Light Drizzle
10:37 PM 46.4 °F 39.2 °F 76% 30.76 in 10.0 mi North - - N/A   Mostly Cloudy
10:57 PM 46.4 °F 37.4 °F 71% 30.76 in 10.0 mi North - - N/A   Mostly Cloudy
11:17 PM 48.2 °F 37.4 °F 66% 30.77 in 10.0 mi North - - N/A   Overcast
11:37 PM 48.2 °F 37.4 °F 66% 30.77 in 10.0 mi North - - N/A   Overcast
11:57 PM 48.2 °F 37.4 °F 66% 30.77 in 10.0 mi North - - N/A   Overcast